User: anonymous   Login
Location: Unspecified
(0.0000°N, 0.0000°E)
Time: 04:51:00
(UTC+00:00)
Language:

P76-5 - Orbit

View from above orbital plane
View from above orbital plane
View from above satellite
View from above satellite

Ground track
Ground track

The orbit data is extracted from the following two-line orbital elements,

1  8860U 76047A   19348.30345329 -.00000009  00000-0  43899-4 0  9997
2  8860  99.7540 111.4723 0041459 283.0623  95.3988 13.67619493171688
Epoch (UTC): 14 December 2019 07:16:58
Eccentricity: 0.0041459
inclination: 99.7540°
perigee height: 977 km
apogee height: 1039 km
right ascension of ascending node: 111.4723°
argument of perigee: 283.0623°
revolutions per day: 13.67619493
mean anomaly at epoch: 95.3988°
orbit number at epoch: 17168

The dashed part of the orbit path shows where the satellite is in the earth's shadow,  

DLR